Tracking 20626 objects as of 10-Apr-2020
HD Live streaming from Space Station
objects crossing your sky now

PEGASUS DEB

Track PEGASUS DEB now!
10-day predictions


NORAD ID: 39927
Int'l Code: 1994-029AGA
Perigee: 556.0 km
Apogee: 659.5 km
Inclination: 81.8 °
Period: 96.7 minutes
Semi major axis: 6978 km
RCS: 0.0109 m2 (small)
Launch date: May 19, 1994
Source: United States (US)
Launch site: AIR FORCE WESTERN TEST RANGE (AFWTR)

Note: This is SATELLITE DEBRIS
aabbcc
Your satellite tracking list
Your tracking list is empty




NASA's NSSDC Master Catalog

Two Line Element Set (TLE):
1 39927U 94029AGA 20099.19574041 +.00000429 +00000-0 +40650-4 0  9999
2 39927 081.8272 061.3721 0074174 180.6515 179.4618 14.89142541317229
Source of the keplerian elements: AFSPC